sat.trackr.live / text

‹ back to catalog

HAMMER

NORAD 59148 · 2024-043BC

PAYLOAD ACTIVE UNKNOWN

§ Identity

Operator
Country
SPN
Launch date
2024-03-04
Launch site
AFWTR
Launch vehicle
Mass (kg)
RCS (m²)

External: N2YO · Heavens-Above · Gunter

§ Orbital elements

Epoch: 2026-05-25T03:56:38.893056Z

Period
92.97 min
Inclination
97.5424°
Eccentricity
0.0005690
Mean motion
15.48950343 rev/d
Perigee alt
415.9 km
Apogee alt
423.7 km
Semi-major
6,797.9 km
B*
8.3366e-4
RAAN
292.8479°
Arg perigee
256.9180°
Mean anomaly
103.1436°
Rev number
12,424

§ Raw data

HAMMER1 59148U 24043BC  26145.16433904  .00045155  00000+0  83366-3 0  99962 59148  97.5424 292.8479 0005690 256.9180 103.1436 15.48950343124245

JSON: /api/v1/satellites/59148 · /tle

For live sub-satellite position, see the globe view (requires WebGL).

§ Visibility from observer

Set your observer location to see the next 7 days of passes ≥ 10°. The values pass through the URL so the page stays shareable.

No JS? Fill the form by hand. The geolocation button needs JavaScript.

§ Radio — SatNOGS DB

ModeDescriptionDownlinkUplink
FM Mode S 2.263 GHz

1 transmitter · refreshed weekly from db.satnogs.org